Flag for Norway Weather past 2 weeks in Vestby, Norway

45 °F

Quite cool.

Feels Like: 42 °F
Forecast: 43 / 53 °F
Wind: 5 mph from Northwest

Location: Rygge

Current Time: Oct 4, 2015 at 5:34:49 AM

Latest Report: Oct 4, 2015 at 4:50 AM

Visibility: 0 mi

Pressure: 29.89 "Hg

Humidity: 100%

Dew point: 45 °F

Location of VestbyLocation

Historic Weather in Vestby — Graph


Vestby temperature yesterday

Maximum temperature yesterday: 59 °F (at 1:20 PM)
Minimum temperature yesterday: 41 °F (at 4:50 AM)
Average temperature yesterday: 51 °F

Past Weeks' High & Low Weather Summary

High66 °F (Sep 30, 12:50 PM)100% (Sep 21, 2:20 AM)30.72 "Hg (Sep 21, 2:20 AM)
Low36 °F (Sep 27, 6:20 AM)43% (Sep 19, 2:50 PM)29.62 "Hg (Sep 22, 5:50 PM)
Average53 °F80%30.09 "Hg
* Reported Sep 19 3:20 AM — Oct 4 3:50 AM, Vestby, Weather by CustomWeather, © 2015

Note: Actual official high and low records may vary slightly from our data, if they occured in-between our weather recording intervals... More about our weather records


Vestby weather history for previous 24 hours

Time TempWeatherWind HumidityBarometerVisibility
3:50 AM
Sun, Oct 4
43 °FPassing clouds.3 mph100%29.89 "Hg1 mi
3:20 AM45 °FLight fog.2 mph100%29.89 "Hg0 mi
2:50 AM46 °FFog.2 mph93%29.89 "Hg0 mi
2:20 AM45 °FQuite cool.2 mph93%29.89 "Hg0 mi
1:50 AM48 °FPassing clouds.3 mph100%29.89 "Hg2 mi
1:20 AM50 °FFog.3 mph94%29.89 "Hg1 mi
12:50 AM50 °FPassing clouds.3 mph94%29.89 "HgN/A
12:20 AM50 °FPassing clouds.3 mph94%29.92 "HgN/A
11:50 PM
Sat, Oct 3
52 °FPassing clouds.5 mph94%29.92 "HgN/A
11:20 PM54 °FPartly cloudy.7 mph88%29.92 "HgN/A
10:50 PM54 °FPassing clouds.7 mph88%29.92 "HgN/A
10:20 PM52 °FPartly cloudy.5 mph94%29.92 "HgN/A
9:50 PM52 °FPassing clouds.7 mph88%29.92 "HgN/A
9:20 PM52 °FPassing clouds.8 mph88%29.92 "HgN/A
8:50 PM52 °FPassing clouds.7 mph94%29.92 "HgN/A
8:20 PM54 °FPassing clouds.7 mph88%29.92 "HgN/A
7:50 PM54 °FPassing clouds.6 mph88%29.92 "HgN/A
7:20 PM54 °FPartly sunny.6 mph88%29.92 "HgN/A
6:50 PM54 °FBroken clouds.8 mph88%29.95 "HgN/A
6:20 PM55 °FPartly sunny.9 mph82%29.95 "HgN/A
5:50 PM55 °FBroken clouds.9 mph82%29.95 "HgN/A
5:20 PM55 °FPartly sunny.9 mph82%29.95 "HgN/A
4:50 PM55 °FScattered clouds.9 mph82%29.98 "HgN/A
4:20 PM57 °FScattered clouds.8 mph77%29.98 "HgN/A
3:50 PM57 °FSunny.9 mph67%29.98 "Hg10 mi
3:20 PM57 °FPassing clouds.6 mph59%29.98 "HgN/A
2:50 PM59 °FPassing clouds.5 mph51%29.98 "HgN/A
2:20 PM57 °FSunny.5 mph55%30.01 "Hg10 mi
1:50 PM59 °FPassing clouds.3 mph51%30.01 "HgN/A
1:20 PM59 °FSunny.2 mph55%30.04 "Hg10 mi
12:50 PM57 °FSunny.1 mph55%30.04 "Hg10 mi
12:20 PM57 °FSunny.1 mph55%30.04 "Hg10 mi
11:50 AM55 °FPassing clouds.5 mph59%30.07 "HgN/A
11:20 AM55 °FPassing clouds.3 mph59%30.07 "HgN/A
10:50 AM54 °FSunny.2 mph63%30.07 "Hg10 mi
10:20 AM52 °FSunny.2 mph62%30.07 "Hg10 mi
9:50 AM52 °FSunny.1 mph62%30.07 "Hg10 mi
9:20 AM48 °FPassing clouds.3 mph71%30.04 "HgN/A
8:50 AM45 °FPassing clouds.5 mph76%30.04 "HgN/A
7:50 AM41 °FPassing clouds.3 mph87%30.04 "HgN/A
7:20 AM41 °FPassing clouds.3 mph87%30.04 "HgN/A
6:20 AM43 °FClear.5 mph93%30.04 "Hg10 mi
5:20 AM43 °FQuite cool.5 mph93%30.04 "HgN/A
Weather by CustomWeather, © 2015

See weather overviewHow to use our weather pages